Find Starlink 2361

NORAD ID: 47901 Int'l Des: 2021-021 Owner: SPXS Country: US Constellation: starlink operational
LEOCIRCULAR

当前视图

正在加载3D地球...

About Starlink 2361

Starlink 2361 (NORAD 47901) is a starlink constellation satellite (v1.0) launched Mar 14, 2021 by SPXS of US. It operates in LEO, CIRCULAR orbit with a mass of 260.00 kg.

关于 Starlink 2361

正在加载描述...

即将过境

Passes for default location (London). Set your location on the main map for personalized predictions.

高度历史

Loading altitude history...

两行轨道根数

1 47901U 21021AT 26196.92608281 .00037419 00000-0 88416-3 0 9991
2 47901 53.1557 14.7795 0002366 113.3626 246.7629 15.41504072296126
Epoch: Jul 15, 2026 • Age: 19 hours

当前状态

高度 444.0 km
远地点 / 近地点 N/A
速度 7.65 km/s
星下点 -4.85°S, 179.86°E
发射日期 Mar 14, 2021
运行时间 5.3 years
类型 internet

技术详情

分类 Payload
质量 260.00 kg
干质量 248.00 kg
总质量 260.00 kg
长度 0.20 m
直径 2.80 m
跨度 9.00 m
形状 Box + pan
制造商 SPXS
平台类型 Starlink
阶段状态 In Orbit
所有者/国家 SPXS/US

Most Searched